Погода в Литл-Роке

США     34°43′51″N   92°18′03″W
темп.,
°C
ветер,
м/с
пор.,
м/с
влажн.,
%
обл.,
%
осадки,
мм/ч
давл.,
гПа
погр.,
м
23 октября, сб
сб2301:00+15ю24590 0.0 101685
04:00+14ю24610 0.0 1015100
07:00+14ю25620 0.0 1015109
10:00+20ююз48450 0.0 1016377
13:00+26ююз474549 0.0 10141164
16:00+29ююз47443 0.0 10111994
19:00+24ююв386087 0.0 1010173
22:00+23ю51475100 0.3 1011528
24 октября, вс
вс2401:00+22ююз5158136 0.3 1012688
04:00+21ююз5158498 0.0 1011744
07:00+20ю515904 0.0 1011730
10:00+24ююз7137337 0.0 10121019
13:00+29ююз812498 0.0 10101936
16:00+31ююз7124139 0.0 10082428
19:00+28ю713513 0.0 10081134
22:00+23ююз616821 1.0 1009760
25 октября, пн
пн2501:00+22юз61689100 2.6 1010725
04:00+21зюз269288 3.3 1011408
07:00+19зсз23935 3.3 101278
10:00+21сз24632 0.0 1014340
13:00+26зсз45380 0.0 10131048
16:00+26сз46360 0.0 10121164
19:00+21ссз36520 0.0 1014155
22:00+16ссв49590 0.0 1016364
26 октября, вт
вт2601:00+13св37690 0.0 1017336
04:00+12св37720 0.0 1016292
07:00+11св37772 0.0 1017275
10:00+13всв3466100 0.0 1018400
13:00+15в335997 0.0 1015479
16:00+18в3452100 0.0 1012550
19:00+16вюв2461100 0.0 1012172
22:00+15вюв286597 0.0 1010238
27 октября, ср
ср2701:00+15вюв2768100 0.4 1008239
04:00+15вюв2774100 0.1 1006242
07:00+15в3896100 1.6 1004268
10:00+16вюв3997100 1.4 1002378
13:00+18юв31098100 3.5 999448
16:00+19зюз269796 2.1 997396
19:00+17зсз61388100 2.8 998798
22:00+14зсз614710 0.0 999887